Zurück zum Katalog

DELTA 1 DEB

AktivLEO
NORAD 7196·DEBRIS·🇺🇸 United States

Gestartet Nov 6, 1973 von Vandenberg Space Force Base

Loading…

Nächste Überflüge (nächste 24 Stunden)

TLE

AktuellSource: Space-Track

Epoche: Sep 14, 2026, 05:34 UTC

1 07196U 73086FE  26257.23238723 -.00000032  00000-0  10655-3 0  9995
2 07196 102.4185 260.1795 0052332  63.7535   0.0942 12.47089641405051

Verfolge DELTA 1 DEB in Echtzeit mit AllMySat

Download on the App Store